Location: *
(58.4167°N, 22.5000°E)
Time: 05:44:54
(UTC+00:00)

Thor Agena Rocket - Pass Details

Date: 22 September 2019
Orbit: 760 x 807 km, 99.0° (Epoch: 14 October)

Event Time Altitude Azimuth Distance (km) Brightness Sun altitude
Rises 20:01:20 0° 19° (NNE) 3,339 7.2 -25.1°
Reaches altitude 10° 20:03:45 10° 25° (NNE) 2,405 6.4 -25.3°
Enters shadow 20:08:00 45° 68° (ENE) 1,098 4.1 -25.7°
